Weather History for PAWD - May, 2013

Change the Weather History Date:

Saturday, May 11, 2013

  Actual Average Record
Temperature  
Mean Temperature 46 °F -  
Max Temperature 55 °F 51 °F 66 °F (1968)
Min Temperature 39 °F 38 °F 30 °F (1998)
Degree Days  
Heating Degree Days 18    
Moisture  
Dew Point 41 °F    
Average Humidity 82    
Maximum Humidity 97    
Minimum Humidity 61    
Precipitation  
Precipitation 0.15 in - - ()
Sea Level Pressure  
Sea Level Pressure 29.72 in    
Wind  
Wind Speed 4 mph (North)    
Max Wind Speed 18 mph    
Max Gust Speed 23 mph    
Visibility 10 miles    
Events Rain    
Averages and records for this station are not official NWS values.
T = Trace of Precipitation, MM = Missing Value Source: NWS Daily Summary

Daily Weather History Graph

Daily Weather History Graph

Search for Another Location

Airport or City:

Trip Planner

Search our weather history database for the weather conditions in past years. The results will help you decide how hot, cold, wet, or windy it might be!

Date:

Astronomy

May. 11, 2013 Rise Set
Actual Time 5:27 AM AKDT 10:22 PM AKDT
Civil Twilight 4:26 AM AKDT 11:23 PM AKDT
Nautical Twilight 2:26 AM AKDT 1:21 AM AKDT
Astronomical Twilight Sun does not set Sun does not set
Moon 6:34 AM AKDT (5/11) No Moon Set
Length of Visible Light 18h 57m
Length of Day
16h 54m
Waxing Crescent, 3% of the Moon is Illuminated
May 11
Waxing Crescent
May 17
First Quarter
May 24
Full
May 31
Last Quarter
Jun 8
New

Hourly Weather History & Observations

Time (AKDT) Temp. Windchill Dew Point Humidity Pressure Visibility Wind Dir Wind Speed Gust Speed Precip Events Conditions
12:53 AM 42.1 °F - 41.0 °F 96% 29.97 in 8.0 mi Calm Calm - N/A   Overcast
1:53 AM 41.0 °F 38.0 °F 39.0 °F 93% 29.95 in 9.0 mi North 4.6 mph - 0.03 in Rain Light Rain
2:53 AM 41.0 °F - 39.0 °F 93% 29.92 in 10.0 mi Calm Calm - 0.03 in Rain Light Rain
3:53 AM 41.0 °F - 39.0 °F 93% 29.90 in 7.0 mi Calm Calm - 0.00 in   Overcast
4:53 AM 39.9 °F 37.8 °F 39.0 °F 97% 29.88 in 8.0 mi North 3.5 mph - 0.01 in Rain Light Rain
5:53 AM 41.0 °F - 39.9 °F 96% 29.84 in 10.0 mi Calm Calm - 0.00 in   Overcast
6:53 AM 41.0 °F - 39.9 °F 96% 29.82 in 10.0 mi Calm Calm - N/A   Overcast
7:53 AM 43.0 °F 41.3 °F 41.0 °F 93% 29.80 in 10.0 mi SSE 3.5 mph - 0.02 in Rain Light Rain
8:53 AM 45.0 °F 39.7 °F 41.0 °F 86% 29.78 in 10.0 mi North 10.4 mph - 0.01 in Rain Light Rain
9:53 AM 48.0 °F - 43.0 °F 83% 29.75 in 10.0 mi NNW 5.8 mph - 0.00 in   Overcast
10:53 AM 48.9 °F - 41.0 °F 74% 29.73 in 10.0 mi North 9.2 mph - 0.00 in   Overcast
11:53 AM 52.0 °F - 42.1 °F 69% 29.70 in 10.0 mi North 9.2 mph - 0.02 in Rain Light Rain
12:53 PM 54.0 °F - 41.0 °F 62% 29.69 in 10.0 mi Variable 6.9 mph - 0.00 in   Overcast
1:53 PM 53.1 °F - 42.1 °F 66% 29.67 in 10.0 mi NNW 5.8 mph - 0.00 in Rain Light Rain
2:53 PM 54.0 °F - 41.0 °F 62% 29.65 in 10.0 mi Variable 5.8 mph 16.1 mph 0.00 in   Overcast
3:53 PM 53.1 °F - 39.9 °F 61% 29.62 in 10.0 mi NNW 10.4 mph 17.3 mph 0.00 in Rain Light Rain
4:53 PM 53.1 °F - 41.0 °F 64% 29.60 in 10.0 mi North 9.2 mph 17.3 mph 0.00 in   Overcast
5:53 PM 52.0 °F - 41.0 °F 66% 29.58 in 10.0 mi NNW 18.4 mph 23.0 mph N/A   Overcast
6:53 PM 52.0 °F - 41.0 °F 66% 29.58 in 10.0 mi North 8.1 mph - 0.00 in   Overcast
7:53 PM 46.0 °F 44.8 °F 44.1 °F 93% 29.58 in 10.0 mi Variable 3.5 mph - 0.00 in Rain Light Rain
8:53 PM 46.0 °F - 44.1 °F 93% 29.57 in 10.0 mi Calm Calm - 0.03 in Rain Light Rain
9:53 PM 45.0 °F - 43.0 °F 93% 29.57 in 10.0 mi Calm Calm - 0.00 in   Overcast
10:53 PM 46.0 °F 41.4 °F 42.1 °F 86% 29.56 in 10.0 mi North 9.2 mph - N/A   Overcast
11:53 PM 46.9 °F - 41.0 °F 80% 29.55 in 10.0 mi North 9.2 mph - N/A   Overcast